Location: ?????oe
(44.4874°N, 135.7046°E)
Time: 21:18:44
(UTC+00:00)

S3M - Pass Details

Date: 13 December 2025
Orbit: 947 x 1004 km, 83.0° (Epoch: 21 January)

Event Time Altitude Azimuth Distance (km) Brightness Sun altitude
Rises 21:02:03 0° 352° (N) 3,663 6.7 -14.3°
Reaches altitude 10° 21:04:34 10° 354° (N) 2,705 6.1 -13.8°
Maximum altitude 21:10:46 79° 81° (E) 974 4.1 -12.8°
Drops below altitude 10° 21:16:51 10° 169° (S) 2,663 6.7 -11.8°
Sets 21:19:20 0° 170° (S) 3,602 7.4 -11.4°
